EA2DUR Weather Reports


time (UTC)temp
C
wind
direction
speed
KPH
gust
KPH
rain 1hr
cm
rain 24hr
cm
rain mn
cm
humidity
%
barometer
mb
20260503224508 11 45 9.7 16.1 0.00 0.00 0.00 97 945.6
20260503223006 11 84 3.2 11.3 0.00 0.00 0.00 98 945.4
20260503221504 11 30 4.8 9.7 0.00 0.00 0.00 97 945.4
20260503220101 11 57 3.2 4.8 0.00 0.00 0.00 98 945.3
20260503214601 11 113 1.6 3.2 0.00 0.00 0.00 97 945.0
20260503213109 11 113 0.0 3.2 0.00 0.00 0.00 97 945.0
20260503211559 11 287 1.6 4.8 0.00 0.00 0.00 97 944.9
20260503210109 11 76 0.0 1.6 0.00 0.00 0.00 97 944.9
20260503204608 11 76 0.0 1.6 0.00 0.00 0.00 96 944.6
20260503203103 11 76 0.0 4.8 0.00 0.00 0.00 96 944.4
20260503201558 11 45 3.2 6.4 0.00 0.00 0.00 96 944.4
20260503200058 11 54 4.8 8.0 0.00 0.00 0.00 96 944.4
20260503194553 11 59 4.8 8.0 0.00 0.00 0.00 96 944.4
20260503193056 11 82 3.2 4.8 0.00 0.00 0.00 96 944.4
20260503191608 11 42 3.2 8.0 0.00 0.00 0.00 95 944.0
20260503190051 12 46 3.2 4.8 0.00 0.00 0.00 95 943.9
20260503184558 12 355 4.8 9.7 0.00 0.00 0.00 95 943.6
20260503183110 11 212 3.2 8.0 0.00 0.00 0.00 95 943.3
20260503181550 12 127 1.6 4.8 0.00 0.00 0.00 95 943.3
20260503180049 12 180 3.2 12.9 0.00 0.00 0.00 95 943.8
20260503174548 12 294 11.3 14.5 0.00 0.00 0.00 95 943.6
20260503173112 12 140 9.7 17.7 0.00 0.00 0.00 94 943.6
20260503171549 12 124 9.7 17.7 0.00 0.00 0.00 94 943.8
20260503081500 13 231 3.2 8.0 0.00 0.00 0.00 89 946.3
20260503071551 12 184 3.2 9.7 0.00 0.00 0.00 94 946.3
20260503070103 12 196 1.6 6.4 0.00 0.00 0.00 94 946.4
20260503054545 11 223 1.6 6.4 0.00 0.00 0.00 96 946.1
20260503053042 11 248 1.6 4.8 0.00 0.00 0.00 95 945.9
20260503051540 11 265 3.2 6.4 0.00 0.00 0.00 95 945.9
20260503050038 11 176 1.6 6.4 0.00 0.00 0.00 95 945.8
20260503044537 11 232 4.8 6.4 0.00 0.00 0.00 95 945.9
20260503043041 11 242 1.6 9.7 0.00 0.00 0.00 95 945.9
20260503041536 11 212 1.6 4.8 0.00 0.00 0.00 94 945.8
20260503040045 11 178 1.6 9.7 0.00 0.00 0.00 95 946.0
20260503034545 11 194 3.2 8.0 0.00 0.00 0.00 94 946.0
20260503033039 11 179 3.2 8.0 0.00 0.00 0.00 94 946.1
20260503031538 12 192 1.6 9.7 0.00 0.00 0.00 94 946.1
20260503030038 12 217 3.2 6.4 0.00 0.00 0.00 94 946.1
20260503024529 12 223 3.2 8.0 0.00 0.00 0.00 94 946.1
20260503023028 12 238 3.2 12.9 0.00 0.00 0.00 94 946.2
20260503021532 12 153 6.4 17.7 0.00 0.00 0.00 94 946.3
20260503020026 12 224 12.9 25.7 0.00 0.00 0.00 93 946.4
20260503014523 12 132 12.9 27.4 0.00 0.00 0.00 93 946.3
20260503013022 12 140 14.5 25.7 0.00 0.00 0.00 93 946.5
20260503011520 12 168 11.3 19.3 0.00 0.00 0.00 93 946.8
20260503010019 12 146 9.7 22.5 0.00 0.00 0.00 93 946.8
20260503004518 12 180 9.7 22.5 0.00 0.00 0.00 94 946.9
20260503003018 12 149 11.3 24.1 0.00 0.00 0.00 94 946.9
20260503001516 12 123 9.7 22.5 0.00 0.00 0.00 94 947.0
20260503000011 12 163 6.4 16.1 0.00 0.00 0.00 94 947.1
20260502234510 12 153 8.0 17.7 0.00 0.00 0.00 94 947.2
20260502233009 12 209 8.0 12.9 0.00 0.00 0.00 94 947.2
20260502231514 12 145 4.8 16.1 0.00 0.00 0.00 94 947.2
20260502230008 12 198 4.8 11.3 0.00 0.00 0.00 94 947.2